Weather History for KMHS - July, 2014

Change the Weather History Date:

Monday, July 14, 2014

  Actual Average Record
Temperature  
Mean Temperature 79 °F 68 °F  
Max Temperature 97 °F 86 °F 102 °F (1987)
Min Temperature 61 °F 50 °F 34 °F (1929)
Degree Days  
Heating Degree Days 0 1  
Month to date heating degree days 0 20  
Since 1 June heating degree days 56 162  
Since 1 July heating degree days 0 20  
Cooling Degree Days 14 4  
Month to date cooling degree days 143 47  
Year to date cooling degree days 210 92  
Since 1 June cooling degree days 201 84  
Growing Degree Days 29 (Base 50)    
Moisture  
Dew Point 53 °F    
Average Humidity 42    
Maximum Humidity 72    
Minimum Humidity 24    
Precipitation  
Precipitation 0.00 in 0.01 in 0.02 in (2011)
Month to date precipitation 0.06 0.23  
Year to date precipitation 11.89 26.83  
Sea Level Pressure  
Sea Level Pressure 30.00 in    
Wind  
Wind Speed 2 mph (WNW)    
Max Wind Speed 8 mph    
Max Gust Speed 14 mph    
Visibility 10 miles    
Events      
T = Trace of Precipitation, MM = Missing Value Source: NWS Daily Summary

Daily Weather History Graph

Daily Weather History Graph

Search for Another Location

Airport or City:

Trip Planner

Search our weather history database for the weather conditions in past years. The results will help you decide how hot, cold, wet, or windy it might be!

Date:

Astronomy

Jul. 14, 2014 Rise Set
Actual Time 5:48 AM PDT 8:41 PM PDT
Civil Twilight 5:15 AM PDT 9:14 PM PDT
Nautical Twilight 4:33 AM PDT 9:55 PM PDT
Astronomical Twilight 3:45 AM PDT 10:43 PM PDT
Moon 10:12 PM PDT (7/14) 8:39 AM PDT (7/14)
Length of Visible Light 15h 58m
Length of Day
14h 53m
Waning Gibbous, 92% of the Moon is Illuminated
Jul 14
Waning Gibbous
Jul 18
Last Quarter
Jul 26
New
Aug 3
First Quarter
Aug 10
Full

Hourly Weather History & Observations

Time (PDT) Temp. Heat Index Dew Point Humidity Pressure Visibility Wind Dir Wind Speed Gust Speed Precip Events Conditions
12:56 AM 73.0 °F - 53.1 °F 49% 30.03 in 10.0 mi Variable 3.5 mph - N/A   Clear
1:56 AM 70.0 °F - 54.0 °F 57% 30.02 in 10.0 mi NW 3.5 mph - N/A   Clear
2:56 AM 69.1 °F - 53.1 °F 57% 30.02 in 10.0 mi Calm Calm - N/A   Clear
3:56 AM 68.0 °F - 53.1 °F 59% 30.03 in 10.0 mi Calm Calm - N/A   Clear
4:56 AM 63.0 °F - 53.1 °F 70% 30.03 in 10.0 mi Calm Calm - N/A   Clear
5:56 AM 62.1 °F - 52.0 °F 70% 30.04 in 10.0 mi Calm Calm - N/A   Clear
6:56 AM 66.9 °F - 53.1 °F 61% 30.04 in 10.0 mi Calm Calm - N/A   Clear
7:56 AM 73.0 °F - 55.0 °F 53% 30.04 in 10.0 mi Calm Calm - N/A   Clear
8:56 AM 75.9 °F - 55.0 °F 48% 30.04 in 10.0 mi Variable 5.8 mph - N/A   Clear
9:56 AM 79.0 °F - 55.0 °F 44% 30.03 in 10.0 mi Variable 5.8 mph - N/A   Clear
10:56 AM 84.9 °F 83.7 °F 55.9 °F 37% 30.01 in 10.0 mi Variable 4.6 mph - N/A   Clear
11:56 AM 88.0 °F 86.1 °F 55.0 °F 32% 30.00 in 10.0 mi Variable 3.5 mph - N/A   Clear
12:56 PM 91.0 °F 89.2 °F 55.9 °F 30% 29.98 in 10.0 mi West 3.5 mph - N/A   Clear
1:56 PM 93.0 °F 92.7 °F 60.1 °F 33% 29.97 in 10.0 mi Variable 4.6 mph - N/A   Clear
2:56 PM 95.0 °F 93.0 °F 55.0 °F 26% 29.96 in 10.0 mi Variable 3.5 mph - N/A   Clear
3:56 PM 96.1 °F 93.5 °F 53.1 °F 23% 29.94 in 10.0 mi Variable 3.5 mph - N/A   Clear
4:56 PM 95.0 °F 92.7 °F 54.0 °F 25% 29.94 in 10.0 mi Variable 3.5 mph - N/A   Clear
5:56 PM 91.9 °F - 52.0 °F 26% 29.94 in 10.0 mi Variable 4.6 mph - N/A   Clear
6:56 PM 87.1 °F - 52.0 °F 30% 29.94 in 10.0 mi Calm Calm - N/A   Clear
7:56 PM 86.0 °F - 48.0 °F 27% 29.96 in 10.0 mi Variable 3.5 mph - N/A   Clear
8:56 PM 81.0 °F - 48.9 °F 33% 29.99 in 10.0 mi Calm Calm - N/A   Clear
9:56 PM 80.1 °F - 48.0 °F 32% 30.01 in 10.0 mi Variable 4.6 mph - N/A   Clear
10:56 PM 75.9 °F - 48.9 °F 38% 30.02 in 10.0 mi Calm Calm - N/A   Clear
11:56 PM 71.1 °F - 50.0 °F 47% 30.02 in 10.0 mi Calm Calm - N/A   Clear